Tracking 19572 objects as of 23-Feb-2019
HD Live streaming from Space Station
objects crossing your sky now

GLOBALSTAR M040

Track GLOBALSTAR M040 now!
10-day predictions
GLOBALSTAR M040 is classified as:


NORAD ID: 25622
Int'l Code: 1999-004B
Perigee: 1,421.7 km
Apogee: 1,422.9 km
Inclination: 52.0 °
Period: 114.1 minutes
Semi major axis: 7793 km
RCS: 2.1681 m2 (large)
Launch date: February 9, 1999
Source: Globalstar (GLOB)
Launch site: TYURATAM MISSILE AND SPACE COMPLEX (TTMTR)
aabbcc
Your satellite tracking list
Your tracking list is empty




NASA's NSSDC Master Catalog

Two Line Element Set (TLE):
1 25622U 99004B   19053.89874642 -.00000102 +00000-0 +94265-5 0  9990
2 25622 051.9892 235.8695 0000804 047.3583 096.5243 12.61889134924336
Source of the keplerian elements: AFSPC